When you browse on this site, cookies collect data to enhance your experience and personalize the content and advertising you see.
Visit our Privacy Policy to learn more. By continuing to use the site, you agree to this use of cookies and data.
  • In Latvia
  • List of Countries
  • For 7 days
  • Water Temperature
  • Weather Map
  • Weather Widgets
  • user-avatar
    Login

    Hourly Weather Benguela

    Today, 17 November, Sunday

    Time Temperature Precipitation Wind Pressure Humidity
    00:00 +27°C° 0 mm 2 mps 756 mmHg 81%
    01:00 +26°C° 0 mm 2 mps 756 mmHg 79%
    02:00 +26°C° 0.1 mm 2 mps 756 mmHg 79%
    03:00 +26°C° 0.1 mm 2 mps 756 mmHg 80%
    04:00 +26°C° 0.1 mm 1 mps 756 mmHg 80%
    05:00 +27°C° 0 mm 1 mps 757 mmHg 79%
    06:00 +27°C° 0 mm 1 mps 757 mmHg 78%
    07:00 +27°C° 0 mm 1 mps 758 mmHg 77%
    08:00 +28°C° 0 mm 1 mps 758 mmHg 75%
    09:00 +28°C° 0 mm 2 mps 758 mmHg 73%
    10:00 +29°C° 0 mm 2 mps 758 mmHg 71%
    11:00 +29°C° 0 mm 2 mps 757 mmHg 70%
    12:00 +30°C° 0 mm 3 mps 757 mmHg 68%
    13:00 +30°C° 0 mm 3 mps 756 mmHg 67%
    14:00 +30°C° 0 mm 3 mps 756 mmHg 68%
    15:00 +30°C° 0 mm 3 mps 756 mmHg 68%
    16:00 +30°C° 0 mm 3 mps 755 mmHg 68%
    17:00 +29°C° 0 mm 3 mps 756 mmHg 71%
    18:00 +28°C° 0 mm 2 mps 757 mmHg 74%
    19:00 +28°C° 0 mm 2 mps 757 mmHg 77%
    20:00 +27°C° 0 mm 2 mps 758 mmHg 78%
    21:00 +27°C° 0 mm 1 mps 758 mmHg 79%
    22:00 +27°C° 0 mm 1 mps 759 mmHg 79%
    23:00 +27°C° 0 mm 1 mps 758 mmHg 80%

    Tomorrow, 18 November, Monday

    Time Temperature Precipitation Wind Pressure Humidity
    00:00 +27°C° 0 mm 1 mps 758 mmHg 80%
    01:00 +27°C° 0 mm 2 mps 758 mmHg 80%
    02:00 +27°C° 0.1 mm 1 mps 757 mmHg 81%
    03:00 +27°C° 0.1 mm 1 mps 757 mmHg 81%
    04:00 +27°C° 0.1 mm 1 mps 757 mmHg 82%
    05:00 +27°C° 0 mm 1 mps 757 mmHg 81%
    06:00 +27°C° 0 mm 1 mps 757 mmHg 81%
    07:00 +27°C° 0 mm 2 mps 758 mmHg 80%
    08:00 +28°C° 0 mm 1 mps 758 mmHg 76%
    09:00 +29°C° 0 mm 1 mps 758 mmHg 72%
    10:00 +30°C° 0 mm 1 mps 758 mmHg 68%
    11:00 +30°C° 0 mm 2 mps 757 mmHg 65%
    12:00 +31°C° 0 mm 3 mps 757 mmHg 61%
    13:00 +33°C° 0 mm 4 mps 757 mmHg 57%
    14:00 +32°C° 0 mm 4 mps 756 mmHg 63%
    15:00 +30°C° 0 mm 4 mps 756 mmHg 68%
    16:00 +29°C° 0 mm 4 mps 756 mmHg 73%
    17:00 +29°C° 0 mm 4 mps 756 mmHg 75%
    18:00 +28°C° 0 mm 3 mps 757 mmHg 77%
    19:00 +28°C° 0 mm 3 mps 757 mmHg 79%
    20:00 +27°C° 0 mm 3 mps 758 mmHg 80%
    21:00 +27°C° 0 mm 3 mps 758 mmHg 80%
    22:00 +27°C° 0 mm 2 mps 758 mmHg 81%
    23:00 +27°C° 0 mm 2 mps 758 mmHg 81%

    Day after tomorrow, 19 November, Tuesday

    Time Temperature Precipitation Wind Pressure Humidity
    00:00 +27°C° 0 mm 2 mps 758 mmHg 81%
    01:00 +27°C° 0 mm 1 mps 757 mmHg 81%
    02:00 +27°C° 0 mm 1 mps 757 mmHg 81%
    03:00 +27°C° 0 mm 2 mps 757 mmHg 82%
    04:00 +27°C° 0 mm 2 mps 757 mmHg 82%
    05:00 +27°C° 0 mm 2 mps 757 mmHg 82%
    06:00 +27°C° 0 mm 2 mps 758 mmHg 81%
    07:00 +27°C° 0 mm 2 mps 758 mmHg 81%
    08:00 +29°C° 0 mm 2 mps 758 mmHg 73%
    09:00 +30°C° 0 mm 2 mps 758 mmHg 65%
    10:00 +33°C° 0 mm 3 mps 758 mmHg 57%
    11:00 +33°C° 0 mm 3 mps 758 mmHg 57%
    12:00 +34°C° 0 mm 3 mps 757 mmHg 56%
    13:00 +34°C° 0 mm 4 mps 757 mmHg 55%
    14:00 +33°C° 0 mm 4 mps 756 mmHg 56%
    15:00 +33°C° 0 mm 4 mps 756 mmHg 57%
    16:00 +32°C° 0 mm 4 mps 755 mmHg 58%
    17:00 +30°C° 0 mm 4 mps 756 mmHg 61%
    18:00 +29°C° 0 mm 3 mps 756 mmHg 64%
    19:00 +28°C° 0 mm 3 mps 757 mmHg 68%
    20:00 +28°C° 0 mm 3 mps 757 mmHg 69%
    21:00 +28°C° 0 mm 3 mps 757 mmHg 70%
    22:00 +27°C° 0 mm 2 mps 758 mmHg 72%
    23:00 +27°C° 0 mm 3 mps 758 mmHg 73%

    20 November, Wednesday

    Time Temperature Precipitation Wind Pressure Humidity
    00:00 +27°C° 0 mm 3 mps 757 mmHg 74%
    01:00 +27°C° 0 mm 3 mps 757 mmHg 76%
    02:00 +26°C° 0 mm 2 mps 757 mmHg 77%
    03:00 +26°C° 0 mm 2 mps 757 mmHg 78%
    04:00 +26°C° 0 mm 2 mps 756 mmHg 79%
    05:00 +26°C° 0 mm 2 mps 757 mmHg 79%
    06:00 +26°C° 0 mm 2 mps 757 mmHg 79%
    07:00 +26°C° 0 mm 2 mps 758 mmHg 79%
    08:00 +27°C° 0 mm 2 mps 758 mmHg 73%
    09:00 +28°C° 0 mm 3 mps 758 mmHg 67%
    10:00 +30°C° 0 mm 3 mps 758 mmHg 61%
    11:00 +30°C° 0 mm 3 mps 758 mmHg 58%
    12:00 +31°C° 0 mm 3 mps 757 mmHg 55%
    13:00 +33°C° 0 mm 4 mps 757 mmHg 52%
    14:00 +32°C° 0 mm 4 mps 756 mmHg 54%
    15:00 +32°C° 0 mm 4 mps 756 mmHg 55%
    16:00 +30°C° 0 mm 4 mps 755 mmHg 57%
    17:00 +29°C° 0 mm 3 mps 756 mmHg 60%
    18:00 +28°C° 0 mm 3 mps 756 mmHg 64%
    19:00 +27°C° 0 mm 2 mps 757 mmHg 68%
    20:00 +27°C° 0 mm 2 mps 757 mmHg 69%
    21:00 +27°C° 0 mm 2 mps 758 mmHg 70%
    22:00 +27°C° 0 mm 2 mps 758 mmHg 71%
    23:00 +27°C° 0 mm 2 mps 758 mmHg 72%

    21 November, Thursday

    Time Temperature Precipitation Wind Pressure Humidity
    00:00 +26°C° 0 mm 3 mps 758 mmHg 73%
    01:00 +26°C° 0 mm 3 mps 757 mmHg 74%
    02:00 +26°C° 0 mm 2 mps 757 mmHg 74%
    03:00 +26°C° 0 mm 2 mps 757 mmHg 75%
    04:00 +26°C° 0 mm 1 mps 757 mmHg 76%
    05:00 +26°C° 0 mm 1 mps 757 mmHg 76%
    06:00 +26°C° 0 mm 1 mps 758 mmHg 76%
    07:00 +26°C° 0 mm 1 mps 758 mmHg 76%
    08:00 +28°C° 0 mm 1 mps 758 mmHg 67%
    09:00 +29°C° 0 mm 1 mps 758 mmHg 59%
    10:00 +31°C° 0 mm 2 mps 758 mmHg 51%
    11:00 +31°C° 0 mm 2 mps 758 mmHg 52%
    12:00 +31°C° 0 mm 3 mps 757 mmHg 53%
    13:00 +32°C° 0 mm 4 mps 757 mmHg 54%
    14:00 +32°C° 0 mm 4 mps 756 mmHg 54%
    15:00 +33°C° 0 mm 4 mps 756 mmHg 55%
    16:00 +33°C° 0 mm 4 mps 756 mmHg 55%
    17:00 +30°C° 0 mm 4 mps 756 mmHg 60%
    18:00 +29°C° 0 mm 4 mps 756 mmHg 64%
    19:00 +27°C° 0 mm 4 mps 757 mmHg 69%
    20:00 +27°C° 0 mm 3 mps 757 mmHg 70%
    21:00 +27°C° 0 mm 3 mps 758 mmHg 72%
    22:00 +27°C° 0 mm 3 mps 758 mmHg 73%
    23:00 +26°C° 0 mm 3 mps 758 mmHg 75%

    22 November, Friday

    Time Temperature Precipitation Wind Pressure Humidity
    00:00 +26°C° 0 mm 2 mps 757 mmHg 77%
    01:00 +26°C° 0 mm 2 mps 757 mmHg 79%
    02:00 +25°C° 0 mm 2 mps 757 mmHg 80%
    03:00 +25°C° 0 mm 2 mps 757 mmHg 81%
    04:00 +25°C° 0 mm 1 mps 757 mmHg 82%
    05:00 +25°C° 0 mm 1 mps 757 mmHg 80%
    06:00 +26°C° 0 mm 2 mps 758 mmHg 78%
    07:00 +26°C° 0 mm 2 mps 758 mmHg 76%
    08:00 +28°C° 0 mm 2 mps 758 mmHg 68%
    09:00 +29°C° 0 mm 2 mps 758 mmHg 61%
    10:00 +31°C° 0 mm 2 mps 759 mmHg 53%
    11:00 +31°C° 0 mm 2 mps 758 mmHg 54%
    12:00 +31°C° 0 mm 2 mps 757 mmHg 55%
    13:00 +31°C° 0 mm 3 mps 757 mmHg 56%
    14:00 +31°C° 0 mm 3 mps 756 mmHg 56%
    15:00 +33°C° 0 mm 4 mps 755 mmHg 55%
    16:00 +33°C° 0 mm 4 mps 755 mmHg 55%
    17:00 +32°C° 0 mm 4 mps 755 mmHg 59%
    18:00 +29°C° 0 mm 4 mps 756 mmHg 62%
    19:00 +28°C° 0 mm 4 mps 756 mmHg 66%
    20:00 +27°C° 0 mm 3 mps 757 mmHg 68%
    21:00 +27°C° 0 mm 3 mps 757 mmHg 71%
    22:00 +26°C° 0 mm 3 mps 758 mmHg 74%
    23:00 +26°C° 0 mm 3 mps 758 mmHg 76%
    Show more